Lid_Strength_Index
-2 -1 -1 -1 -1 -1 -1 -1 -1 -1 -1 -1 -1 0 0 1 1 2 4 2 1 -1 1 2 5 6 7 7 6 6 11 12 11 11 11 9 10 8 7 6 6 5 5 4 2
-1 -1 -1 -1 -1 -1 -1 -1 -1 -1 -1 -1 -1 -1 0 1 4 4 1 -1 -0 -1 1 4 7 7 9 7 7 8 11 10 9 10 11 9 9 9 9 7 7 6 4 3 2
-1 -1 -1 -1 -1 -1 -1 -1 -1 -1 -1 -1 -0 -0 0 2 6 5 -0 -1 -0 -0 1 1 5 7 9 8 8 9 11 8 9 10 10 10 11 10 10 10 8 7 6 4 3
-1 -1 -1 -1 -1 -1 -1 -1 -1 -1 -1 -1 -1 -0 1 3 11 3 -1 -1 -1 1 2 3 3 8 9 10 8 10 8 8 9 9 10 11 10 11 11 11 8 6 4 4 4
-1 -1 -1 -1 -1 -1 -1 -1 -1 -1 -0 -1 -0 -1 2 6 6 2 0 0 1 2 3 4 5 6 9 9 9 9 8 6 9 10 11 10 11 11 12 10 8 4 4 5 4
-1 -1 -1 -1 -1 -1 -1 -1 -1 -1 -1 -0 -1 0 3 9 2 2 2 2 2 3 3 3 5 4 7 8 9 8 8 9 10 10 10 11 11 12 11 10 9 5 5 4 4
-1 -1 -1 -1 -1 -1 -1 -1 -1 -1 -1 -0 -1 1 4 6 1 2 2 3 2 2 3 2 3 5 6 8 7 8 10 10 10 10 10 9 11 12 10 10 9 8 5 5 4
-1 -1 -1 -1 -1 -1 -1 -1 -1 -1 -1 -1 0 1 7 1 1 1 2 3 1 1 1 1 2 5 6 6 9 10 10 13 10 9 10 10 13 9 8 10 10 9 7 5 4
-1 -1 -1 -1 -1 -1 -1 -1 -1 -1 -1 -1 1 4 7 -0 3 2 2 3 2 1 1 1 3 6 6 10 12 11 14 12 11 8 10 11 13 9 8 10 11 10 8 6 5
-1 -1 -1 -1 -1 -1 -1 -1 -1 -1 -0 -0 1 6 4 6 3 2 1 2 3 3 5 5 6 9 9 11 17 15 14 12 12 9 10 11 12 9 10 10 10 10 9 7 5
-1 -1 -1 -1 -1 -1 -0 1 5 6 4 6 6 6 5 3 1 3 2 4 4 5 10 7 11 13 11 10 10 11 12 13 10 9 11 11 11 10 9 11 11 10 10 8 5
-1 -1 -1 -1 -1 -1 0 4 4 3 8 4 4 5 3 3 7 5 2 6 7 11 8 10 13 9 8 9 10 11 12 13 11 11 12 11 11 10 9 8 8 10 10 9 7
-1 -1 -1 -1 -1 0 2 3 0 1 8 7 5 6 5 4 7 7 4 6 8 10 10 12 10 8 9 10 12 12 13 13 13 11 10 12 12 10 8 8 8 9 9 9 8
-1 -1 -1 -1 2 2 3 1 -0 1 12 11 9 6 5 5 9 4 3 6 8 11 10 10 8 9 10 11 10 14 10 11 12 13 16 12 18 13 10 9 8 9 10 10 9
-1 -1 -1 -1 2 4 2 -0 0 3 20 9 9 3 5 9 8 7 3 6 10 10 10 12 10 11 12 11 9 12 9 11 11 13 14 14 16 14 10 11 9 8 9 9 9
-1 -1 -1 1 1 1 -0 0 3 14 20 13 9 10 10 9 8 7 7 5 6 9 9 10 8 8 10 8 8 9 10 11 12 13 19 15 15 15 12 10 9 9 8 7 8
-1 -1 0 0 4 -0 0 4 14 18 11 14 12 10 10 11 11 10 11 11 13 15 15 11 11 10 8 11 10 10 13 19 20 20 20 14 16 14 10 9 9 9 9 8 7
-1 -1 -0 0 -1 0 3 10 18 14 14 10 10 11 13 10 11 11 12 13 10 11 14 16 17 12 9 11 12 12 13 18 22 22 19 17 18 13 8 8 10 10 9 10 10
-1 1 2 1 -0 1 7 15 15 13 11 12 11 14 14 12 12 12 12 13 11 9 14 15 15 11 9 9 9 13 15 11 16 20 19 16 14 11 10 10 11 11 10 10 10
2 3 3 -0 0 3 10 13 12 9 10 10 15 13 16 14 14 13 13 10 10 9 9 12 16 12 12 9 10 11 10 16 15 21 22 17 16 15 13 11 10 11 10 10 10
3 6 2 -0 1 7 13 13 11 8 9 11 12 14 13 14 13 14 13 11 8 9 9 10 13 15 12 12 13 12 14 13 13 15 20 21 17 14 12 11 11 12 11 11 10
4 10 2 1 9 9 11 10 9 9 8 11 10 11 12 12 13 13 14 11 7 8 11 11 13 17 15 13 10 11 12 12 16 18 16 17 17 12 13 12 12 12 11 10 10
8 7 3 3 12 12 9 10 9 10 10 11 12 9 9 12 14 12 11 9 8 9 10 11 14 18 17 15 14 13 12 11 12 14 17 18 17 11 13 12 12 11 11 10 10
6 11 7 6 7 10 11 11 11 8 10 10 12 9 10 12 11 12 12 9 8 8 9 10 13 15 17 15 14 15 13 12 12 17 16 15 14 14 13 12 12 11 11 10 9
6 9 8 12 10 10 9 10 12 12 10 9 11 11 11 13 13 13 11 10 8 9 11 11 16 14 13 12 12 13 12 12 13 12 14 14 13 11 11 11 10 9 9 9 9
8 9 9 9 9 10 10 11 12 11 10 11 12 11 10 13 12 13 11 11 11 11 12 11 16 14 18 13 13 14 12 12 12 12 12 13 13 10 10 10 9 9 9 10 9
4 5 7 9 10 11 11 11 11 10 10 9 10 10 11 10 8 8 8 9 9 10 11 12 15 16 20 17 16 19 14 13 12 11 11 14 11 11 11 10 10 9 9 10 9